Location: *
(45.9500°N, 9.0833°E)
Time: 19:18:23
(UTC+00:00)

Cosmos 1703 Rocket - Pass Details

Date: 03 March 2021
Orbit: 604 x 634 km, 82.5° (Epoch: 20 April)

Event Time Altitude Azimuth Distance (km) Brightness Sun altitude
Rises 18:47:45 0° 351° (N) 2,912 7.2 -17.2°
Reaches altitude 10° 18:50:00 10° 351° (N) 1,996 6.4 -17.6°
Maximum altitude 18:54:25 88° 76° (ENE) 622 3.5 -18.3°
Drops below altitude 10° 18:58:47 10° 172° (S) 1,962 5.9 -19.1°
Enters shadow 18:59:27 - 172° (S) 2,235 6.2 -19.2°
